Regional Weather Roundup
Issued by NWS Boston, MA

Current Version | Previous Version | Text Only | Print | Product List | Glossary Off
Versions: 1 2 3 4 5 6 7 8 9 10 11 12 13 14 15 16 17 18 19 20 21 22 23 24 25 26 27 28 29 30 31 32 33 34 35 36 37 38 39 40 41 42 43 44 45 46 47 48 49 50
091 ASUS41 KBOX 281510 RWRBOX REGIONAL WEATHER ROUNDUP NATIONAL WEATHER SERVICE TAUNTON MA 1100 AM EDT TUE MAR 28 2017 NOTE: "FAIR" INDICATES FEW OR NO CLOUDS BELOW 12,000 FEET WITH NO SIGNIFICANT WEATHER AND/OR OBSTRUCTIONS TO VISIBILITY. MAZALL-281600- EASTERN MASSACHUSETTS CITY SKY/WX TMP DP RH WIND PRES REMARKS BOSTON CLOUDY 39 37 92 E6 30.04F BEVERLY CLOUDY 40 36 86 NE5 30.04S LAWRENCE CLOUDY 36 35 96 SE3 30.06S BEDFORD CLOUDY 39 34 82 E5 30.03S FOG BLUE HILL N/A 37 36 96 VRB5 30.00S NORWOOD CLOUDY 42 38 85 E5 30.03F MARSHFIELD CLOUDY 41 37 87 E5 30.03F PLYMOUTH CLOUDY 40 37 89 NE6 30.02F TAUNTON CLOUDY 40 37 89 E6 30.02F NEW BEDFORD CLOUDY 41 38 89 E7 30.01F $$ MAZALL-281600- CAPE COD AND THE ISLANDS CITY SKY/WX TMP DP RH WIND PRES REMARKS FALMOUTH CLOUDY 39 39 100 MISG 30.03F HYANNIS CLOUDY 41 40 96 NE7 30.01F CHATHAM CLOUDY 41 39 93 NE7 30.04S PROVINCETOWN CLOUDY 42 38 85 E8 30.04S NANTUCKET CLOUDY 41 40 96 NE8 30.03R FOG MARTHAS VNYRD CLOUDY 41 39 93 E9 30.01F $$ MAZALL-281600- CENTRAL AND WESTERN MASSACHUSETTS CITY SKY/WX TMP DP RH WIND PRES REMARKS WORCESTER FOG 36 35 96 E3 29.99S VSB 1/4 FITCHBURG CLOUDY 37 36 96 NE5 30.03S FOG ORANGE CLOUDY 40 38 93 SE5 29.99F SPRINGFIELD CLOUDY 42 40 95 VRB3 29.99S WESTFIELD CLOUDY 41 40 96 CALM 29.99S FOG NORTH ADAMS CLOUDY 50 43 77 E7 29.93F PITTSFIELD CLOUDY 45 40 82 CALM 29.93S $$ RIZALL-281600- RHODE ISLAND CITY SKY/WX TMP DP RH WIND PRES REMARKS PROVIDENCE CLOUDY 41 38 89 E7 30.02F NEWPORT CLOUDY 39 39 100 E7 30.01F FOG BLOCK ISLAND CLOUDY 40 39 97 E10 30.02S SMITHFIELD CLOUDY 37 37 100 E5 30.01F FOG WESTERLY CLOUDY 41 39 93 E10 30.02S $$ CTZALL-281600- CONNECTICUT CITY SKY/WX TMP DP RH WIND PRES REMARKS BRADLEY INTL CLOUDY 42 40 92 E3 30.00S FOG HARTFORD CLOUDY 43 40 89 CALM 29.99F FOG BRIDGEPORT CLOUDY 42 39 89 E15 29.97R DANBURY CLOUDY 43 42 97 E7 29.96F GROTON CLOUDY 40 39 97 E10 30.01S FOG NEW HAVEN CLOUDY 43 40 89 E14 29.96F CHESTER NOT AVBL MERIDEN CLOUDY 43 40 89 N5 29.98F FOG WILLIMANTIC CLOUDY 44 40 85 SE5 30.01S OXFORD FOG 39 37 93 E5 29.97F VSB 1/4 $$ MEZ002-015-021-024-NHZ003-005-008-011-012-014-VTZ005-008-281600- NORTHERN NEW ENGLAND CITY SKY/WX TMP DP RH WIND PRES REMARKS PORTLAND ME CLOUDY 35 31 85 CALM 30.07S BANGOR ME CLOUDY 33 31 92 E5 30.05S WCI 29 CONCORD NH CLOUDY 37 33 85 SE3 30.03S MANCHESTER NH CLOUDY 37 31 78 SE5 30.02F NASHUA NH CLOUDY 37 35 92 SE3 30.04F PORTSMOUTH NH CLOUDY 37 33 88 CALM 30.04S JAFFREY NH CLOUDY 37 35 92 CALM 29.99S KEENE NH CLOUDY 41 36 82 NE5 30.00F BURLINGTON VT CLOUDY 47 43 86 S8 29.90S MT. WASHINGTON FOG 36 36 100 W31 N/A VSB 0 WCI 22 $$ NYZ052-076-281600- EASTERN NEW YORK CITY SKY/WX TMP DP RH WIND PRES REMARKS ALBANY CLOUDY 49 42 77 S9 29.95R NEW YORK CITY CLOUDY 43 40 89 NE5 29.99R FOG $$ ANZALL-281600- MARINE OBSERVATIONS STATION/POSITION TIME TEMP WIND PRES VSBY WAVE AIR SEA DIR/SP/G HT/PER (UTC) (F) (DEG/KT/KT) (MB) (MI) (FT/S) BOSTON BUOY 1350 38 40 50/ 4/ 6 1017.1 4/ 8 BUZZARDS BAY 1400 36 50/ 10/ 10 1017.1S NANTUCKET SOUND 1450 39 1016.7F 1 MASS BAY-STELLWA 1404 38 39 70/ 4/ 6 1016.2F 4/ 7 ISLE OF SHOALS 1400 36 50/ 8/ 9 1017.0F S OF BLOCK IS 1455 40 N/A 4/ 7 $$ ......................KEY......................... SKY/WX - SKY CONDITION/PRESENT WEATHER TMP - TEMPERATURE IN FAHRENHEIT DWPT - DEWPOINT IN FAHRENHEIT RH - RELATIVE HUMIDITY IN PERCENT WIND - DIRECTION AND SPEED IN MPH PRES - MEAN SEA LEVEL PRESSURE IN INCHES OF HG WCI - WIND CHILL INDEX VSB - VISIBILITY IN MILES HX - HEAT INDEX TC - TEMPERATURE IN CELSIUS VRB - VARIABLE WIND DIRECTION N/A - NOT AVAILABLE

USA.gov is the U.S. government's official web portal to all federal, state and local government web resources and services.